DELTA 1 DEB *, 18599

Orbit data source: Space-Track

DELTA 1 DEB *, 18599 is space debris in LEO originally from a launch on Thu, 29 Jul 1976 UTC launched from the Air Force Western Test Range (AFWTR). Debris objects in space refer to the collection of defunct objects orbiting the Earth. Examples of debris include non-operational satellites, rocket bodies, and fragments generated from explosions, collisions, or faulty payload assembly.

Loading next visibility...
Identifier
18599, 1976-077FE
Orbit
LEO
Country
Flag of USUS
Related business
Manufacturer
Unknown
Mission
Spacecraft
Bus & Motor
Unknown
Mass
Unknown
Launch date (UTC)
1976-07-29 (50 years ago)
Launch vehicle
Unknown
Launch site
Air Force Western Test Range (AFWTR)
Object type
Payload
Rocket body
Debris
Shape & HBR
Unknown shape, 0.1 m
Radar Cross Section
Small (<0.1 m²)

Expand to show TLE details & history
Last TLE update: 18 hours ago

TLE from 18 hours ago
0 DELTA 1 DEB *
1 18599U 76077FE  26037.50562244  .00004371  00000-0  22529-1 0  9991
2 18599 100.8421 235.5439 0789611 226.9918 155.4349 11.98346536765588
Epoch: 2026-02-06T12:08Z
TLE epoch observation values (Epoch: 2026-02-06T12:08:05.778Z)
Latitude
25.4045°
Longitude
-88.31838°
Altitude
2,278.221 km
Speed
6.537 km/s
True Right ascension
15h 21m 23s
True Declination
25° 17' 42"
Sunlit
Object was in daylight at epoch
Visualization orbit readout
Latitude
Unknown
Longitude
Unknown
Altitude
Unknown
Speed
Unknown
Apparent Right ascension
Unknown
Apparent Declination
Unknown
Sunlit
N/A
Visualization observer readout
Local Sidereal Time
08:00:18
Azimuth
Unknown
Elevation
Unknown
Doppler factor
Unknown
Orbital elements
Apogee altitude
2,322.553 km
Perigee altitude
1,049.076 km
Semi-major axis
8,063.951 km
Eccentricity
0.07896
Inclination
100.8421°
RAAN
235.5439°
Arg. of periapsis
226.9918°
True anomaly
158.88371°
Mean anomaly
155.4349°
Eccentric anomaly
157.18888°
Mean motion
2.99724 °/min
Orbital period
120.11 mins
BSTAR
0.022529
Loading maneuver chart data...
Computing Atmospheric mass density...
Loading historical data...
Loading historical data...
Loading historical data...
Loading historical data...
Loading historical data...
Loading historical data...
Loading historical data...

Documentation

Showing up to 5 results
|